Wind_Speed
6 7 7 7 7 7 6 6 6 6 7 7 8 8 9 9 10 10 11 11 12 12 12 12 13 13 13 14 14 15 17 18 19 19 19 19 19 19 19 19 19 20 20
7 6 6 6 7 6 6 6 6 7 8 8 8 8 8 9 10 11 10 10 10 11 11 11 12 12 13 14 15 16 16 17 17 18 18 18 18 19 19 19 19 20 20
7 7 6 6 6 6 6 6 7 7 8 8 8 8 8 8 8 9 10 10 10 11 11 11 12 12 13 14 15 16 16 17 17 17 17 17 17 18 18 19 19 19 19
6 6 6 6 6 6 7 7 7 7 7 7 8 8 8 8 8 9 10 10 11 11 11 12 12 13 13 14 14 15 16 16 17 17 17 17 17 17 18 18 18 17 18
6 6 7 7 8 7 8 8 8 8 7 6 7 8 8 8 8 9 10 10 10 11 11 12 13 13 14 14 14 14 15 16 16 16 16 16 16 16 16 16 16 17 17
8 8 8 8 8 8 8 8 8 8 8 8 8 8 8 8 8 8 8 9 9 10 11 11 12 13 13 13 14 14 14 14 14 15 14 15 15 15 15 16 16 17 17
9 9 8 9 8 8 8 8 8 8 8 8 8 8 8 8 8 8 8 9 9 10 11 11 12 12 12 12 13 13 13 13 13 13 13 13 14 14 15 16 16 16 16
9 9 9 9 9 9 9 9 8 8 8 8 8 8 8 8 9 9 9 10 10 11 11 11 13 13 13 12 13 13 13 14 13 13 13 14 14 14 14 13 14 14 15
9 9 9 9 9 9 9 9 8 9 9 9 9 10 10 9 9 9 10 10 11 12 11 12 12 12 13 13 13 13 14 14 14 14 14 15 15 14 14 14 14 15 16
9 9 9 9 9 9 9 9 9 9 9 9 9 10 10 10 9 10 11 11 12 13 13 13 13 13 12 13 14 14 15 14 14 14 14 14 14 15 14 15 15 15 15
9 9 9 8 8 9 9 9 9 9 9 9 9 10 10 10 11 11 11 12 12 13 14 14 14 13 13 14 14 14 14 14 13 14 14 14 15 15 15 15 15 15 15
9 9 9 9 9 9 9 9 9 9 9 9 9 9 10 10 11 11 12 12 13 14 14 14 14 14 14 14 14 14 13 13 13 13 14 14 15 15 15 15 15 15 15
10 9 9 9 9 9 9 9 9 9 9 10 10 10 10 11 11 12 12 13 14 14 15 15 15 15 15 14 14 13 13 13 14 14 14 15 15 15 15 16 16 16 15
10 10 10 10 9 9 9 9 9 9 10 10 10 11 10 10 11 12 12 13 14 14 14 15 16 15 15 14 14 14 13 13 14 14 14 14 14 14 15 15 16 16 16
12 11 11 11 10 10 10 10 10 10 11 11 11 11 11 11 12 13 13 14 14 14 15 15 15 15 15 15 14 13 13 13 14 13 13 14 14 14 14 15 15 15 16
12 12 12 11 11 11 11 11 12 12 12 12 12 12 11 12 13 14 14 14 14 14 15 15 15 14 14 14 14 14 14 14 14 14 14 15 15 15 14 15 16 16 16
13 13 13 12 12 12 12 12 13 13 13 13 12 12 13 13 14 14 15 15 15 15 16 15 15 14 14 14 14 14 14 14 14 14 14 15 15 15 15 15 15 15 16
15 14 13 13 13 13 13 13 14 14 14 14 14 14 14 15 15 15 16 16 16 16 17 16 15 15 15 14 14 15 15 15 15 14 15 15 16 16 15 15 15 16 16
15 15 15 15 14 14 15 15 15 15 15 15 15 15 16 16 17 17 17 17 17 18 18 17 16 16 16 15 15 15 15 15 15 15 15 16 16 16 16 16 15 15 16
17 16 16 16 16 17 17 16 16 16 16 17 17 17 17 18 18 18 19 19 19 19 19 18 18 17 17 16 16 16 16 16 16 16 16 16 16 16 16 16 16 16 16
18 17 17 17 17 17 17 17 17 17 17 17 18 18 19 19 20 19 20 20 20 20 20 19 18 18 18 17 18 17 18 17 18 18 18 17 17 17 17 17 17 17 17
19 19 18 18 18 18 18 18 18 18 18 18 19 20 20 20 21 21 21 21 20 20 20 20 19 19 18 18 19 19 19 19 19 19 19 18 18 18 18 18 18 18 17
20 20 20 19 18 18 18 18 19 19 20 20 20 21 21 21 21 21 21 20 20 20 20 20 20 20 19 19 20 20 20 21 21 20 20 19 19 19 18 18 18 19 19
21 21 21 20 20 19 19 19 20 21 21 21 21 22 22 22 21 21 21 21 21 21 21 21 21 21 21 21 21 20 20 21 21 20 20 20 19 19 19 19 19 19 19
21 21 21 20 20 20 20 20 20 20 21 21 21 22 22 22 21 21 22 22 22 22 22 22 21 21 20 20 20 20 20 20 20 20 20 20 20 20 20 20 20 20 20
21 21 21 20 21 21 21 21 21 21 21 21 22 22 22 22 22 22 22 22 22 22 22 22 21 21 21 21 21 21 21 20 20 21 21 21 21 20 20 20 21 20 20
Wind_Direction
290 289 289 288 283 280 278 277 281 280 274 268 270 270 264 260 259 260 263 263 264 266 269 271 271 268 268 267 268 269 268 268 267 266 266 266 266 266 266 266 267 267 268
293 292 293 294 286 277 276 282 281 276 274 273 272 273 270 265 265 265 265 265 264 268 269 269 272 274 272 270 270 270 272 271 272 269 266 266 266 267 268 268 269 268 268
302 299 297 295 289 280 282 286 282 280 276 273 274 274 270 267 267 267 267 270 270 270 271 274 274 275 276 275 274 273 275 274 273 271 269 269 268 267 268 269 269 268 268
304 300 297 293 288 284 284 283 280 279 277 275 272 270 269 269 271 270 271 275 276 275 276 276 276 278 279 279 279 275 273 271 272 270 269 270 268 267 268 269 269 270 269
308 302 299 292 287 284 284 281 276 275 274 277 272 266 266 265 271 278 277 276 278 277 277 277 279 278 281 283 283 281 276 273 272 270 271 272 270 271 270 271 269 270 271
309 300 293 290 285 284 283 279 274 273 273 275 273 268 265 268 276 280 280 280 280 281 281 283 282 282 282 285 287 285 281 279 274 269 270 271 272 272 271 272 272 270 270
309 301 292 289 285 285 287 285 278 275 276 277 273 268 266 271 279 281 280 281 282 287 291 292 289 288 287 288 287 284 282 280 275 269 268 271 274 273 273 272 273 273 272
307 303 295 290 287 285 286 287 281 278 279 278 275 273 273 272 278 280 282 285 285 288 292 293 293 290 288 288 289 286 282 279 272 271 270 273 275 274 275 274 274 273 275
307 302 297 292 288 286 288 288 284 281 280 283 281 275 274 276 279 281 280 280 285 287 288 292 294 291 290 290 291 289 281 280 276 275 275 274 273 272 274 274 274 276 278
303 302 298 293 289 287 287 288 287 285 284 286 287 283 278 281 284 287 284 284 287 291 292 292 293 295 294 293 294 292 285 281 279 277 275 273 273 274 274 273 274 275 277
303 301 302 298 293 289 290 290 286 286 289 289 288 288 287 285 285 288 290 290 291 295 296 293 291 292 293 294 294 293 286 281 277 274 273 272 272 273 273 273 274 274 276
307 301 301 299 296 293 293 292 290 287 288 289 290 292 293 291 290 291 291 292 294 295 295 295 294 292 292 291 291 290 289 282 279 278 275 275 273 272 272 271 271 272 273
309 305 298 298 297 296 294 293 291 288 286 289 292 295 296 295 293 292 292 293 294 296 294 293 294 294 292 290 289 289 289 285 280 280 279 278 276 272 267 268 270 271 274
306 303 298 295 294 295 295 293 292 290 287 288 291 293 295 297 296 296 295 296 297 300 299 296 296 295 293 292 290 290 291 289 287 282 282 283 279 276 273 272 269 271 273
302 301 299 293 289 289 288 286 284 285 287 289 289 290 292 295 297 298 297 297 297 299 302 301 298 296 293 292 292 290 290 290 288 286 287 283 282 280 278 275 270 270 273
297 296 295 292 287 286 284 283 283 281 286 288 289 289 291 292 295 298 299 298 297 297 300 301 298 295 292 290 289 289 288 288 288 288 288 288 288 284 284 282 279 273 273
294 292 290 288 286 284 282 282 282 281 282 286 287 289 290 291 295 297 297 297 297 297 299 299 297 293 292 288 286 287 289 288 288 286 287 289 290 289 287 289 286 282 279
290 287 284 284 284 283 283 283 281 279 280 283 285 288 289 290 292 294 295 294 294 294 296 297 295 292 290 288 286 287 287 288 289 287 288 289 289 290 290 290 289 287 287
285 282 281 281 281 281 283 282 279 277 279 281 283 286 289 290 290 291 292 292 292 293 293 293 291 288 286 286 286 285 286 287 288 289 290 290 291 292 291 290 289 289 288
282 279 279 279 278 280 280 280 281 279 281 282 283 286 288 290 290 290 290 291 292 293 292 291 288 286 284 284 282 282 283 286 287 287 290 291 291 291 291 291 289 288 288
280 279 277 280 280 279 279 279 280 281 281 282 283 285 287 289 290 291 291 291 292 291 290 289 287 285 283 281 280 280 281 284 286 288 291 290 290 291 291 289 287 287 287
278 278 280 280 280 280 280 280 282 284 282 283 284 285 286 288 289 290 291 291 291 291 289 287 286 284 282 281 279 279 280 282 284 286 288 287 287 289 289 286 286 287 288
277 278 281 283 282 281 280 280 281 283 284 284 285 286 286 288 289 290 290 291 290 290 288 286 285 284 281 279 280 280 280 281 283 284 285 286 286 287 287 286 286 286 287
276 277 279 281 282 282 282 282 283 284 284 284 284 284 285 286 287 288 288 289 290 289 288 284 283 282 280 278 279 280 281 281 282 283 284 284 285 286 284 285 285 285 285
277 276 277 278 280 281 282 283 284 284 283 284 284 284 285 285 287 287 288 288 289 289 287 284 281 281 280 281 280 281 281 281 280 281 284 285 284 284 283 284 284 284 285
278 276 274 274 278 281 282 282 284 283 283 283 284 285 285 286 287 287 288 287 287 286 285 282 280 279 280 280 280 280 280 280 281 282 284 285 285 284 283 283 283 282 284
Height
5844 5843 5843 5843 5842 5841 5841 5841 5840 5840 5840 5840 5840 5840 5840 5841 5841 5841 5841 5841 5841 5841 5841 5841 5841 5840 5840 5840 5840 5840 5840 5840 5840 5840 5840 5840 5841 5841 5842 5842 5842 5842 5842
5843 5842 5841 5841 5841 5840 5840 5839 5839 5839 5838 5838 5838 5838 5838 5838 5838 5838 5839 5839 5839 5838 5838 5838 5838 5837 5837 5837 5836 5836 5836 5836 5836 5836 5836 5836 5836 5837 5837 5837 5837 5837 5837
5841 5841 5840 5840 5839 5839 5838 5838 5837 5837 5837 5836 5836 5836 5836 5836 5836 5836 5836 5836 5836 5836 5835 5835 5835 5834 5834 5833 5833 5833 5832 5832 5832 5832 5832 5832 5832 5832 5833 5833 5833 5833 5833
5840 5839 5839 5838 5838 5837 5836 5836 5835 5835 5835 5835 5834 5834 5834 5834 5834 5834 5834 5833 5833 5833 5833 5832 5832 5831 5830 5830 5829 5829 5828 5828 5828 5828 5828 5828 5828 5828 5828 5828 5828 5828 5828
5839 5838 5837 5837 5836 5836 5835 5834 5834 5833 5833 5832 5832 5832 5832 5832 5832 5832 5832 5831 5830 5830 5830 5829 5829 5828 5827 5826 5826 5825 5825 5824 5824 5824 5824 5824 5824 5824 5824 5824 5824 5824 5824
5837 5836 5835 5835 5834 5834 5833 5832 5832 5831 5831 5831 5830 5830 5830 5830 5830 5830 5829 5828 5828 5827 5827 5826 5826 5825 5824 5823 5822 5821 5821 5820 5820 5820 5820 5820 5820 5820 5820 5820 5820 5820 5820
5835 5834 5833 5833 5832 5832 5831 5830 5830 5829 5829 5828 5828 5828 5828 5828 5828 5827 5827 5826 5826 5825 5824 5823 5823 5822 5821 5820 5819 5818 5817 5817 5816 5816 5816 5816 5816 5816 5816 5816 5816 5816 5816
5833 5832 5831 5830 5830 5829 5829 5828 5828 5827 5827 5826 5826 5826 5826 5826 5825 5825 5824 5824 5823 5823 5822 5821 5820 5819 5818 5817 5816 5815 5814 5813 5813 5812 5813 5813 5813 5813 5813 5813 5813 5812 5812
5831 5830 5829 5828 5827 5827 5826 5826 5825 5825 5824 5824 5824 5824 5823 5823 5823 5823 5822 5821 5821 5820 5819 5818 5817 5816 5815 5814 5813 5812 5811 5809 5809 5809 5809 5809 5809 5809 5809 5809 5809 5808 5808
5829 5827 5826 5825 5825 5824 5824 5823 5823 5822 5822 5822 5821 5821 5821 5820 5820 5820 5820 5819 5818 5817 5816 5815 5814 5813 5811 5810 5809 5808 5807 5806 5805 5805 5805 5805 5805 5805 5805 5805 5805 5805 5804
5826 5825 5824 5823 5822 5822 5821 5821 5820 5820 5820 5819 5819 5818 5818 5818 5817 5817 5816 5816 5815 5814 5813 5812 5810 5809 5808 5807 5806 5805 5803 5802 5802 5801 5801 5801 5801 5801 5801 5801 5801 5800 5800
5824 5823 5822 5821 5820 5819 5819 5818 5818 5817 5817 5817 5816 5816 5816 5815 5815 5814 5813 5812 5812 5811 5810 5808 5807 5806 5804 5803 5802 5801 5800 5799 5798 5798 5797 5797 5797 5796 5796 5796 5796 5796 5796
5822 5821 5820 5818 5818 5817 5816 5816 5815 5815 5814 5814 5814 5813 5813 5812 5812 5811 5810 5809 5808 5807 5806 5805 5803 5802 5801 5799 5798 5797 5796 5795 5795 5794 5794 5793 5793 5792 5792 5792 5792 5792 5792
5819 5818 5817 5816 5815 5814 5814 5813 5813 5812 5812 5812 5811 5810 5810 5809 5808 5808 5807 5806 5805 5804 5802 5801 5800 5798 5797 5796 5795 5794 5793 5792 5791 5790 5790 5789 5789 5788 5788 5787 5787 5787 5787
5817 5815 5814 5813 5813 5812 5811 5811 5810 5810 5809 5809 5808 5807 5807 5806 5805 5804 5803 5802 5801 5800 5799 5797 5796 5794 5793 5792 5791 5790 5789 5789 5788 5787 5786 5786 5785 5784 5784 5783 5782 5782 5782
5814 5812 5811 5810 5809 5809 5808 5808 5807 5807 5806 5806 5805 5804 5803 5803 5802 5801 5800 5798 5797 5796 5795 5793 5792 5790 5789 5788 5788 5787 5786 5785 5784 5784 5783 5782 5781 5780 5779 5779 5778 5777 5777
5810 5809 5808 5807 5806 5805 5805 5804 5804 5803 5803 5802 5802 5801 5800 5799 5798 5797 5796 5794 5793 5792 5791 5789 5788 5786 5785 5785 5784 5783 5782 5782 5781 5780 5779 5778 5777 5776 5775 5774 5773 5772 5772
5806 5805 5804 5804 5803 5802 5801 5801 5800 5799 5799 5799 5798 5797 5797 5796 5795 5794 5792 5791 5789 5788 5787 5785 5784 5783 5782 5781 5780 5779 5779 5778 5777 5776 5775 5774 5773 5772 5771 5770 5768 5767 5767
5802 5801 5801 5800 5799 5798 5797 5796 5796 5795 5795 5794 5794 5793 5792 5791 5790 5789 5788 5786 5785 5784 5782 5781 5780 5778 5778 5777 5776 5775 5774 5774 5773 5772 5771 5769 5768 5767 5766 5765 5764 5763 5762
5797 5797 5796 5795 5794 5794 5793 5792 5791 5791 5790 5790 5789 5788 5787 5786 5785 5784 5783 5781 5780 5779 5777 5776 5775 5774 5773 5772 5771 5771 5770 5769 5768 5767 5766 5765 5764 5762 5761 5760 5759 5758 5757
5793 5792 5791 5790 5789 5788 5788 5787 5786 5785 5785 5784 5784 5783 5782 5781 5780 5779 5777 5776 5775 5773 5772 5770 5770 5769 5768 5767 5767 5766 5765 5764 5763 5762 5761 5760 5759 5758 5756 5755 5754 5753 5752
5787 5787 5786 5785 5784 5783 5783 5782 5781 5780 5780 5779 5778 5777 5776 5775 5774 5773 5771 5770 5769 5767 5766 5765 5764 5763 5763 5762 5761 5760 5760 5759 5758 5758 5756 5755 5753 5752 5750 5749 5748 5747 5746
5781 5781 5780 5779 5778 5778 5777 5776 5776 5775 5774 5773 5772 5771 5770 5769 5768 5767 5765 5764 5763 5761 5760 5759 5758 5758 5757 5756 5755 5755 5754 5753 5752 5751 5750 5749 5748 5747 5745 5743 5742 5741 5740
5775 5775 5774 5773 5772 5772 5771 5770 5770 5769 5768 5767 5766 5765 5764 5763 5762 5760 5759 5758 5756 5755 5754 5753 5752 5751 5751 5749 5749 5748 5747 5746 5746 5744 5744 5743 5742 5741 5740 5738 5736 5735 5734
5768 5768 5767 5767 5766 5766 5765 5764 5763 5762 5762 5761 5760 5759 5758 5757 5755 5754 5753 5752 5750 5749 5747 5746 5745 5745 5744 5743 5742 5742 5741 5740 5740 5739 5738 5737 5736 5735 5734 5732 5731 5729 5728
5761 5761 5760 5760 5760 5759 5759 5758 5757 5756 5755 5754 5754 5753 5751 5750 5749 5747 5746 5745 5743 5742 5740 5739 5739 5738 5737 5736 5736 5735 5734 5734 5733 5732 5731 5730 5729 5728 5727 5726 5724 5723 5722